DL4LAM-15 Weather Reports


Display with metric or nautical units.
time (UTC)temp
F
wind
direction
speed
MPH
gust
MPH
rain 1hr
in
rain 24hr
in
rain mn
in
humidity
%
barometer
mb
20260506154516 51 0.0 3.0 0.02 0.65 0.65 96 1006.5
20260506154016 51 270 1.0 4.0 0.02 0.65 0.65 96 1006.5
20260506153516 51 0.0 4.0 0.01 0.65 0.64 96 1006.5
20260506153016 51 0.0 4.0 0.01 0.64 0.63 96 1006.5
20260506152517 51 0.0 1.0 0.01 0.64 0.63 96 1006.6
20260506152016 51 0.0 3.0 0.01 0.64 0.63 96 1006.5
20260506151516 51 0.0 1.0 0.01 0.64 0.63 96 1006.5
20260506151016 51 0.0 2.0 0.02 0.64 0.63 96 1006.5
20260506150516 51 0.0 0.0 0.02 0.64 0.63 97 1006.4
20260506150016 51 0.0 2.0 0.02 0.64 0.63 97 1006.4
20260506145016 51 0.0 3.0 0.02 0.64 0.63 96 1006.4
20260506144516 51 0.0 2.0 0.03 0.64 0.63 96 1006.4
20260506144016 51 0.0 4.0 0.03 0.64 0.63 96 1006.3
20260506143516 51 0.0 4.0 0.04 0.64 0.63 96 1006.3
20260506143016 51 225 1.0 4.0 0.03 0.63 0.62 96 1006.3
20260506142516 51 270 1.0 6.0 0.04 0.63 0.62 96 1006.3
20260506142016 51 0.0 2.0 0.04 0.63 0.62 96 1006.3
20260506141516 51 68 1.0 4.0 0.04 0.63 0.62 96 1006.4
20260506140516 51 0.0 3.0 0.03 0.62 0.61 96 1006.4
20260506140016 51 23 1.0 5.0 0.03 0.62 0.61 96 1006.4
20260506135516 51 0.0 1.0 0.03 0.61 0.61 96 1006.5
20260506135018 51 0.0 3.0 0.03 0.61 0.61 96 1006.4
20260506134517 51 68 1.0 3.0 0.03 0.61 0.60 96 1006.4
20260506134016 51 23 1.0 5.0 0.03 0.61 0.60 96 1006.4
20260506133516 50 68 1.0 4.0 0.02 0.60 0.59 96 1006.5
20260506133016 50 68 1.0 7.0 0.02 0.60 0.59 96 1006.4
20260506132516 50 68 1.0 5.0 0.02 0.59 0.58 96 1006.5
20260506132016 50 90 1.0 7.0 0.02 0.59 0.58 96 1006.4
20260506131536 51 0.0 3.0 0.02 0.59 0.58 96 1006.3
20260506130516 51 68 2.0 6.0 0.02 0.59 0.58 96 1006.2
20260506130016 51 0.0 2.0 0.02 0.59 0.58 96 1006.2
20260506125516 50 68 1.0 9.0 0.02 0.58 0.57 96 1006.2
20260506125016 51 68 2.0 9.0 0.02 0.58 0.57 96 1006.2
20260506124516 51 68 1.0 3.0 0.02 0.57 0.57 96 1006.2
20260506124016 50 68 1.0 4.0 0.02 0.57 0.57 96 1006.3
20260506123016 51 45 2.0 8.0 0.02 0.57 0.57 96 1006.2
20260506122016 50 68 1.0 5.0 0.02 0.57 0.57 96 1006.1
20260506121517 50 0 1.0 3.0 0.03 0.57 0.57 96 1006.1
20260506121016 50 0.0 3.0 0.03 0.57 0.57 96 1006.1
20260506120516 50 68 2.0 8.0 0.02 0.57 0.56 96 1006.1
20260506120016 50 68 2.0 7.0 0.02 0.57 0.56 96 1006.0
20260506115516 50 45 1.0 7.0 0.02 0.57 0.56 96 1006.0
20260506114516 50 90 2.0 6.0 0.02 0.56 0.55 96 1006.1
20260506114017 50 68 3.0 7.0 0.02 0.56 0.55 96 1006.1
20260506113016 50 45 2.0 8.0 0.02 0.56 0.55 96 1006.1
20260506112516 50 45 1.0 5.0 0.02 0.55 0.54 96 1006.1
20260506112016 50 68 2.0 7.0 0.02 0.55 0.54 96 1006.2
20260506111516 49 0.0 2.0 0.01 0.54 0.54 96 1006.1
20260506111017 49 68 2.0 8.0 0.01 0.54 0.54 96 1006.2
20260506110516 49 68 2.0 5.0 0.01 0.54 0.54 96 1006.1
20260506110016 49 68 2.0 7.0 0.01 0.54 0.54 96 1006.1
20260506105516 49 0.0 2.0 0.01 0.54 0.54 96 1006.2
20260506105016 49 68 2.0 5.0 0.01 0.54 0.54 96 1006.1
20260506104516 49 68 2.0 8.0 0.00 0.54 0.53 96 1006.1
20260506104016 49 68 2.0 8.0 0.01 0.54 0.53 96 1006.1
20260506103516 49 68 1.0 8.0 0.01 0.54 0.53 96 1006.1
20260506103017 49 68 2.0 8.0 0.01 0.54 0.53 96 1006.1
20260506102016 49 0.0 3.0 0.01 0.54 0.53 96 1006.0
20260506101516 49 68 1.0 5.0 0.01 0.54 0.53 96 1006.1
20260506100516 49 45 1.0 5.0 0.02 0.54 0.53 96 1006.0
20260506100036 49 0.0 3.0 0.02 0.54 0.53 96 1006.0
20260506095516 48 45 1.0 5.0 0.02 0.54 0.53 96 1006.0
20260506095016 48 45 1.0 3.0 0.02 0.54 0.53 96 1006.0
20260506094516 48 68 1.0 4.0 0.02 0.54 0.53 96 1006.0
20260506094016 48 0.0 4.0 0.02 0.53 0.52 96 1006.0
20260506092516 48 68 1.0 5.0 0.03 0.53 0.52 96 1005.9
20260506091516 48 0.0 2.0 0.05 0.53 0.52 96 1005.8
20260506091016 48 0.0 3.0 0.04 0.52 0.51 96 1005.8
20260506090516 48 45 2.0 7.0 0.04 0.52 0.51 96 1005.8
20260506090016 48 68 1.0 5.0 0.04 0.52 0.51 96 1005.8
20260506085016 48 68 1.0 9.0 0.03 0.51 0.50 96 1005.8
20260506084516 48 68 1.0 8.0 0.04 0.51 0.50 96 1005.8
20260506084016 48 68 1.0 5.0 0.03 0.50 0.50 96 1005.8
20260506083516 48 68 1.0 7.0 0.03 0.50 0.50 96 1005.7
20260506083021 48 0.0 2.0 0.03 0.50 0.49 96 1005.7
20260506082516 48 45 1.0 4.0 0.03 0.50 0.49 96 1005.7
20260506082016 48 0.0 4.0 0.02 0.49 0.48 96 1005.7
20260506081518 48 45 1.0 3.0 0.02 0.48 0.47 96 1005.6
20260506081016 48 68 2.0 4.0 0.02 0.48 0.47 96 1005.7
20260506073516 48 23 1.0 4.0 0.04 0.47 0.46 96 1005.5
20260506073015 48 23 1.0 5.0 0.03 0.46 0.46 96 1005.5
20260506072516 48 0.0 3.0 0.03 0.46 0.46 96 1005.5
20260506072036 48 0.0 1.0 0.04 0.46 0.46 96 1005.5
20260506062516 49 315 1.0 5.0 0.05 0.43 0.43 96 1005.2
20260506062017 49 90 1.0 3.0 0.04 0.43 0.42 96 1005.1
20260506061536 49 0.0 3.0 0.04 0.43 0.42 96 1005.1
20260506060517 49 0.0 3.0 0.04 0.42 0.41 96 1005.0
20260506051018 49 45 1.0 4.0 0.05 0.39 0.37 96 1005.1
20260506050517 49 0.0 2.0 0.06 0.39 0.37 96 1005.1
20260506044517 49 68 1.0 5.0 0.06 0.37 0.35 96 1005.1
20260506044017 49 68 1.0 4.0 0.06 0.36 0.35 95 1005.2
20260506043517 49 68 2.0 8.0 0.06 0.37 0.35 95 1005.2
20260506043017 49 45 1.0 6.0 0.06 0.36 0.34 95 1005.2
20260506042518 50 90 1.0 7.0 0.06 0.35 0.33 95 1005.2
20260506042017 50 68 1.0 7.0 0.06 0.36 0.33 95 1005.2
20260506041517 50 68 1.0 5.0 0.07 0.36 0.33 95 1005.2
20260506041018 50 45 2.0 8.0 0.08 0.35 0.32 95 1005.2
20260506040018 50 45 1.0 5.0 0.08 0.35 0.31 95 1005.3
20260506035517 50 45 2.0 6.0 0.08 0.35 0.31 95 1005.4
20260506035017 50 23 1.0 4.0 0.08 0.34 0.30 95 1005.4
20260506034518 50 68 1.0 5.0 0.08 0.34 0.30 95 1005.4
20260506034018 50 68 1.0 4.0 0.08 0.33 0.29 95 1005.4
20260506033517 50 0.0 3.0 0.08 0.32 0.28 95 1005.4
20260506033018 50 68 1.0 7.0 0.09 0.32 0.28 95 1005.5
20260506032517 50 68 1.0 4.0 0.09 0.31 0.28 95 1005.5
20260506032017 51 0.0 3.0 0.09 0.31 0.27 95 1005.5
20260506031517 51 68 1.0 4.0 0.10 0.30 0.26 95 1005.5
20260506030517 51 45 1.0 3.0 0.09 0.28 0.24 95 1005.6
20260506030017 51 0.0 2.0 0.09 0.28 0.24 95 1005.6
20260506025518 51 0.0 2.0 0.09 0.28 0.23 95 1005.6
20260506025017 51 0.0 2.0 0.09 0.27 0.22 95 1005.7
20260506024017 51 0.0 1.0 0.09 0.26 0.21 95 1005.7
20260506023517 51 0.0 4.0 0.09 0.25 0.20 95 1005.8
20260506022517 51 0.0 2.0 0.08 0.23 0.18 95 1005.8
20260506021517 51 0.0 3.0 0.06 0.21 0.16 95 1005.8
20260506021017 51 0.0 2.0 0.06 0.21 0.16 95 1005.9
20260506020518 51 0.0 3.0 0.06 0.20 0.15 95 1005.9
20260506020017 51 0.0 3.0 0.06 0.20 0.14 95 1005.9
20260506015017 52 68 1.0 7.0 0.06 0.20 0.13 95 1006.0
20260506014517 52 45 1.0 3.0 0.06 0.19 0.13 95 1006.0
20260506014017 52 68 1.0 3.0 0.06 0.18 0.12 95 1006.1
20260506013518 52 0.0 3.0 0.06 0.18 0.12 95 1006.0
20260506013017 52 68 1.0 4.0 0.06 0.17 0.11 95 1006.1
20260506012518 52 45 1.0 4.0 0.06 0.17 0.10 95 1006.1
20260506011517 52 0.0 3.0 0.06 0.16 0.09 95 1006.1
20260506010517 52 0.0 3.0 0.06 0.15 0.09 95 1006.1
20260506010017 52 0.0 4.0 0.06 0.14 0.08 95 1006.1
20260506005017 52 0.0 3.0 0.07 0.14 0.08 95 1006.1
20260506004517 52 68 1.0 5.0 0.06 0.13 0.07 94 1006.1
20260506004017 52 68 1.0 3.0 0.06 0.13 0.06 94 1006.3
20260506003517 52 0.0 3.0 0.06 0.13 0.06 94 1006.3
20260506003022 52 0.0 4.0 0.06 0.12 0.06 94 1006.4
20260506002517 52 45 1.0 4.0 0.05 0.11 0.05 94 1006.4
20260506001517 53 45 1.0 4.0 0.03 0.09 0.03 94 1006.5
20260506001017 53 0.0 3.0 0.03 0.09 0.03 94 1006.5
20260506000517 53 68 1.0 7.0 0.02 0.09 0.02 94 1006.6
20260506000017 53 68 2.0 5.0 0.02 0.08 0.02 93 1006.6
20260505235517 53 68 2.0 10.0 0.02 0.08 0.02 94 1006.7
20260505235017 53 0.0 3.0 0.01 0.07 0.01 93 1006.7
20260505234517 53 68 1.0 5.0 0.01 0.07 0.01 93 1006.8
20260505234017 53 68 1.0 5.0 0.00 0.06 0.00 93 1006.8
20260505233537 53 68 1.0 4.0 0.00 0.06 0.00 93 1006.8
20260505233017 53 90 3.0 8.0 0.00 0.06 0.00 92 1006.9
20260505232517 53 68 3.0 8.0 0.00 0.06 0.00 92 1006.9
20260505232017 53 68 2.0 5.0 0.00 0.07 0.00 92 1006.9
20260505231518 53 68 2.0 7.0 0.00 0.07 0.00 92 1007.0
20260505231017 53 68 1.0 7.0 0.00 0.07 0.00 92 1007.0
20260505230517 53 45 1.0 4.0 0.00 0.07 0.00 92 1007.0
20260505230017 53 68 2.0 8.0 0.00 0.07 0.00 92 1007.0
20260505225517 53 68 3.0 6.0 0.00 0.07 0.00 92 1007.0
20260505225017 53 68 2.0 7.0 0.00 0.07 0.00 92 1007.0
20260505224017 53 68 2.0 8.0 0.00 0.08 0.00 92 1007.2
20260505223517 54 68 1.0 5.0 0.00 0.08 0.00 92 1007.2
20260505223017 54 68 1.0 7.0 0.00 0.08 0.00 92 1007.2
20260505222518 54 68 3.0 8.0 0.00 0.08 0.00 92 1007.3
20260505222017 54 90 1.0 5.0 0.00 0.08 0.00 92 1007.4
20260505221017 54 68 1.0 5.0 0.00 0.08 0.00 91 1007.3
20260505220517 54 90 2.0 7.0 0.01 0.08 0.00 91 1007.2
20260505220017 54 68 2.0 7.0 0.01 0.08 0.08 91 1007.3
20260505215517 54 68 1.0 6.0 0.01 0.08 0.08 91 1007.3
20260505215016 54 68 2.0 9.0 0.01 0.08 0.08 91 1007.4
20260505214516 54 45 3.0 10.0 0.01 0.08 0.08 91 1007.4
20260505214016 54 68 2.0 6.0 0.01 0.08 0.08 91 1007.4
20260505213516 54 90 2.0 8.0 0.01 0.08 0.08 91 1007.4
20260505212516 54 68 2.0 10.0 0.01 0.08 0.08 91 1007.5
20260505212016 54 68 2.0 7.0 0.01 0.08 0.08 91 1007.5
20260505211516 54 68 2.0 8.0 0.01 0.09 0.08 91 1007.5
20260505211016 54 45 3.0 7.0 0.01 0.09 0.08 91 1007.6
20260505210516 54 68 1.0 5.0 0.00 0.08 0.07 91 1007.6
20260505210057 54 90 2.0 7.0 0.00 0.09 0.07 91 1007.6
20260505204017 55 68 2.0 8.0 0.00 0.09 0.07 91 1007.5
20260505203516 55 68 1.0 7.0 0.00 0.09 0.07 91 1007.6
20260505203016 55 68 1.0 5.0 0.00 0.09 0.07 91 1007.5
20260505201516 55 68 1.0 4.0 0.00 0.10 0.07 92 1007.4
20260505201016 55 68 2.0 6.0 0.00 0.10 0.07 92 1007.4
20260505200516 55 68 3.0 7.0 0.00 0.11 0.07 91 1007.4
20260505200016 55 68 2.0 12.0 0.00 0.12 0.07 92 1007.4
20260505195516 55 68 2.0 8.0 0.00 0.13 0.07 92 1007.5
20260505195016 55 68 2.0 7.0 0.00 0.13 0.07 92 1007.4
20260505194516 55 68 1.0 7.0 0.00 0.14 0.07 92 1007.4
20260505193516 55 68 2.0 9.0 0.00 0.17 0.07 92 1007.5
20260505193016 55 68 1.0 4.0 0.00 0.18 0.07 92 1007.5
20260505192516 55 68 1.0 5.0 0.00 0.20 0.07 92 1007.5
20260505192016 55 90 1.0 7.0 0.00 0.21 0.07 92 1007.5
20260505191516 55 45 1.0 4.0 0.00 0.23 0.07 92 1007.4
20260505191016 55 45 1.0 3.0 0.00 0.24 0.07 92 1007.5
20260505190521 55 68 1.0 4.0 0.00 0.24 0.07 92 1007.4
20260505190016 55 45 1.0 5.0 0.00 0.25 0.07 92 1007.5
20260505185516 55 68 2.0 8.0 0.00 0.26 0.07 92 1007.5
20260505185036 55 68 3.0 10.0 0.00 0.27 0.07 92 1007.5
20260505184516 55 68 3.0 7.0 0.00 0.28 0.07 92 1007.5
20260505184016 56 68 1.0 5.0 0.00 0.28 0.07 92 1007.5
20260505183016 56 0.0 3.0 0.00 0.28 0.07 92 1007.5
20260505182016 56 68 1.0 4.0 0.00 0.28 0.07 92 1007.6
20260505181516 56 45 1.0 5.0 0.00 0.28 0.07 92 1007.6
20260505181016 56 0.0 1.0 0.00 0.28 0.07 92 1007.6
20260505180516 56 0.0 3.0 0.00 0.28 0.07 92 1007.6
20260505175016 56 68 1.0 5.0 0.00 0.28 0.07 91 1007.7
20260505174516 56 68 1.0 4.0 0.00 0.28 0.07 91 1007.7
20260505174016 56 90 1.0 6.0 0.00 0.28 0.07 91 1007.8
20260505173516 56 0.0 8.0 0.00 0.28 0.07 91 1007.8
20260505173016 56 90 1.0 8.0 0.00 0.28 0.07 91 1007.7
20260505172517 56 68 1.0 5.0 0.00 0.28 0.07 91 1007.7
20260505172016 56 68 1.0 3.0 0.00 0.28 0.07 90 1007.8
20260505171516 56 90 1.0 6.0 0.00 0.28 0.07 90 1007.7
20260505171016 56 45 1.0 4.0 0.00 0.28 0.07 90 1007.8
20260505170516 57 68 1.0 5.0 0.00 0.28 0.07 90 1007.7
20260505170016 57 0.0 3.0 0.00 0.28 0.07 90 1007.8
20260505165516 57 45 1.0 6.0 0.00 0.28 0.07 90 1007.8
20260505164516 57 0.0 2.0 0.00 0.28 0.07 91 1007.8
20260505164016 57 0.0 3.0 0.00 0.28 0.07 90 1007.9
20260505163516 57 68 1.0 4.0 0.00 0.28 0.07 90 1007.9
20260505163016 57 68 2.0 7.0 0.00 0.28 0.07 90 1008.0
20260505162516 57 45 1.0 4.0 0.00 0.28 0.07 90 1008.0
20260505162016 57 0.0 2.0 0.00 0.28 0.07 90 1008.0
20260505161516 57 0.0 2.0 0.00 0.28 0.07 90 1008.0
20260505161017 57 0.0 1.0 0.00 0.28 0.07 90 1008.0
20260505160516 57 0.0 3.0 0.00 0.28 0.07 89 1008.0